TimePDT,TemperatureF,Dew PointF,Humidity,Sea Level PressureIn,VisibilityMPH,Wind Direction,Wind SpeedMPH,Gust SpeedMPH,PrecipitationIn,Events,Conditions,WindDirDegrees,DateUTC
12:53 AM,55.0,19.9,25,30.01,10.0,North,11.5,-,N/A,,Clear,350,2013-03-16 07:53:00
1:53 AM,52.0,19.0,27,30.02,10.0,NNW,6.9,-,N/A,,Clear,340,2013-03-16 08:53:00
2:53 AM,44.1,21.0,40,30.03,10.0,NW,10.4,-,N/A,,Clear,310,2013-03-16 09:53:00
3:53 AM,39.9,19.0,43,30.03,10.0,ENE,5.8,-,N/A,,Clear,70,2013-03-16 10:53:00
4:53 AM,39.0,18.0,43,30.03,10.0,ENE,3.5,-,N/A,,Clear,60,2013-03-16 11:53:00
5:53 AM,37.0,17.1,44,30.04,10.0,Calm,Calm,-,N/A,,Clear,0,2013-03-16 12:53:00
6:53 AM,33.1,19.0,56,30.06,10.0,Calm,Calm,-,N/A,,Clear,0,2013-03-16 13:53:00
7:53 AM,32.0,17.1,54,30.08,10.0,Calm,Calm,-,N/A,,Clear,0,2013-03-16 14:53:00
8:53 AM,46.9,23.0,39,30.06,10.0,SE,6.9,-,N/A,,Clear,130,2013-03-16 15:53:00
9:53 AM,53.1,21.9,30,30.05,10.0,Variable,3.5,-,N/A,,Clear,0,2013-03-16 16:53:00
10:53 AM,57.9,23.0,26,30.03,10.0,WNW,4.6,-,N/A,,Clear,300,2013-03-16 17:53:00
11:53 AM,61.0,21.9,22,30.00,10.0,West,6.9,-,N/A,,Clear,260,2013-03-16 18:53:00
12:53 PM,64.9,23.0,20,29.96,10.0,West,11.5,-,N/A,,Clear,270,2013-03-16 19:53:00
1:53 PM,64.9,21.0,19,29.92,10.0,SW,9.2,-,N/A,,Clear,230,2013-03-16 20:53:00
2:53 PM,68.0,19.0,15,29.90,10.0,West,13.8,24.2,N/A,,Clear,280,2013-03-16 21:53:00
3:53 PM,66.9,18.0,15,29.88,10.0,West,10.4,23.0,N/A,,Clear,280,2013-03-16 22:53:00
4:53 PM,66.9,18.0,15,29.87,10.0,WNW,20.7,29.9,N/A,,Clear,290,2013-03-16 23:53:00
5:53 PM,64.0,16.0,16,29.87,10.0,West,21.9,29.9,N/A,,Clear,280,2013-03-17 00:53:00
6:53 PM,61.0,19.0,20,29.89,10.0,West,18.4,-,N/A,,Clear,280,2013-03-17 01:53:00
7:53 PM,57.9,21.0,24,29.91,10.0,WNW,17.3,-,N/A,,Scattered Clouds,300,2013-03-17 02:53:00
8:53 PM,55.0,21.0,27,29.91,10.0,NW,11.5,-,N/A,,Clear,320,2013-03-17 03:53:00
9:53 PM,52.0,21.0,30,29.94,10.0,WNW,10.4,-,N/A,,Clear,300,2013-03-17 04:53:00
10:53 PM,53.1,21.9,30,29.95,10.0,SSE,6.9,-,N/A,,Overcast,160,2013-03-17 05:53:00
11:53 PM,52.0,23.0,32,29.95,10.0,Calm,Calm,-,N/A,,Overcast,0,2013-03-17 06:53:00